カタログに戻る

FENGYUN 1C DEB

運用中SSO
NORAD 30208·DEBRIS·🇨🇳 China

打ち上げ May 10, 1999 から Taiyuan Satellite Launch Center

Loading…

次のパス (今後24時間)

TLE

最新Source: Space-Track

元期: Sep 13, 2026, 23:19 UTC

1 30208U 99025VR  26256.97167307  .00000547  00000-0  25540-3 0  9994
2 30208  98.5710 255.8646 0033394 186.6020 193.5880 14.24048148 17453

AllMySatでFENGYUN 1C DEBをリアルタイム追跡

Download on the App Store